This demonstration page uses our WeatherBlox Daily Observations layout. Learn more.

Left ArrowRight Arrow

Hourly Observations for June 7, 2021

Temp ( °F °C ) Dew Point ( °F °C ) Humidity (%) Winds ( mph kmh ) Pressure ( in mb ) Visibility ( mi km ) Precip ( " mm )
12:59 am 00:59 Clear 78 25.6 71 21.7 79 79 SSW 6 9 30.14 1021 10 16 0.00 0.00
1:59 am 01:59 Partly Cloudy 77 25 71 21.7 82 82 SSW 6 9 30.13 1020 10 16 0.00 0.00
2:59 am 02:59 Clear 76 24.4 70 21.1 82 82 SW 7 11 30.13 1020 10 16 0.00 0.00
3:59 am 03:59 Mostly Cloudy 76 24.4 70 21.1 82 82 WSW 8 13 30.13 1020 10 16 0.00 0.00
4:59 am 04:59 Partly Cloudy 75 23.9 70 21.1 84 84 SSW 6 9 30.14 1021 10 16 0.00 0.00
5:59 am 05:59 Mostly Cloudy 74 23.3 69 20.6 85 85 SSW 6 9 30.15 1021 10 16 0.00 0.00
6:59 am 06:59 Partly Cloudy 75 23.9 70 21.1 84 84 SSW 8 13 30.16 1021 10 16 0.00 0.00
7:59 am 07:59 Partly Cloudy 77 25 71 21.7 82 82 SW 7 11 30.16 1022 9 14 0.00 0.00
8:59 am 08:59 Partly Cloudy 80 26.7 71 21.7 74 74 SW 9 15 30.17 1022 9 14 0.00 0.00
9:39 am 09:39 Mostly Cloudy 82 27.8 71 21.7 69 69 SW 9 15 30.17 1022 10 16 0.00 0.00
9:59 am 09:59 Mostly Cloudy 83 28.3 71 21.7 67 67 WSW 9 15 30.17 1022 10 16 0.00 0.00
10:59 am 10:59 Mostly Cloudy 85 29.4 71 21.7 63 63 SSW 9 15 30.18 1022 10 16 0.00 0.00
11:59 am 11:59 Mostly Cloudy 86 30 70 21.1 59 59 SW 10 17 30.17 1022 10 16 0.00 0.00
12:59 pm 12:59 Mostly Cloudy 87 30.6 70 21.1 57 57 SSW 7 11 30.15 1021 10 16 0.00 0.00
1:59 pm 13:59 Mostly Cloudy 89 31.7 71 21.7 55 55 VRB 6 9 30.13 1020 10 16 0.00 0.00
2:59 pm 14:59 Mostly Cloudy 88 31.1 69 20.6 54 54 WSW 9 15 30.11 1020 10 16 0.00 0.00
3:59 pm 15:59 Mostly Cloudy 89 31.7 69 20.6 52 52 SW 7 11 30.09 1019 10 16 0.00 0.00
4:59 pm 16:59 Mostly Cloudy 88 31.1 69 20.6 54 54 SW 6 9 30.09 1019 10 16 0.00 0.00
5:59 pm 17:59 Partly Cloudy 86 30 72 22.2 63 63 SSW 10 17 30.07 1018 10 16 0.00 0.00
6:59 pm 18:59 Partly Cloudy 84 28.9 70 21.1 63 63 SSW 10 17 30.07 1018 10 16 0.00 0.00
7:59 pm 19:59 Partly Cloudy 82 27.8 71 21.7 69 69 S 9 15 30.08 1019 10 16 0.00 0.00
8:59 pm 20:59 Partly Cloudy 80 26.7 69 20.6 69 69 SW 9 15 30.11 1020 10 16 0.00 0.00
9:59 pm 21:59 Partly Cloudy 78 25.6 69 20.6 74 74 SSW 7 11 30.14 1021 10 16 0.00 0.00
10:59 pm 22:59 Partly Cloudy 77 25 69 20.6 77 77 SSW 12 19 30.14 1021 10 16 0.00 0.00
11:59 pm 23:59 Partly Cloudy 77 25 70 21.1 79 79 SSW 9 15 30.14 1021 10 16 0.00 0.00

Powered by AerisWeather